Content
SEND FEEDBACK

Daily
Averages
Monthly
Summary
United States of America

BERNIE, MISSOURI


Home > North America > United States > Missouri
Elevation: 302 feet     Latitude: 36 40N     Longitude: 089 58W

WEATHER
 
SELECT A DAY
Number of Records: 211,954;   Date Range: 1/1/95 - 11/27/14
 
SHARE

PRINT THIS DATA

[ ← Previous Day ]
WEATHER ALMANAC - JULY 2, 2014
[ Next Day → ]
[ °C ]   °F
Weather ElementAverageHighLow
Temperature75 °F82.9 °F (2:53 pm)66.9 °F (11:53 pm)
Dewpoint63.1 °F68 °F (1:53 am)57 °F (1:53 pm)
Humidity68.9 %87 % (1:53 am)42 % (1:53 pm)
Barometer29.99 in30.07 in (11:53 pm)29.91 in (5:53 am)
Wind Speed5.4 mph10.4 mph (1:53 pm)
Weather ElementAverage
Visibility10 mi
Wind DirectionWSW (243.6 °)

Weather ElementTotal
Precipitation---
Cooling Degree Days9.9 (Base 65)
Growing Degree Days24.9 (Base 50)
Averaged from 22 records on July 2, 2014
WEATHER CONDITIONS BREAKOUT
WIND DIRECTION BREAKOUT
WEATHER BY HOUR - JULY 2, 2014
[ °C ]   °F
Local TimeTemperatureDewpointHumidityBarometerVisibilityWind DirectionWind SpeedGust SpeedPrecipitationEventsConditions
1:53 AM72.0 °F68.0 °F87 %29.95 in10.0 miSW (220°)5.8 mphClear
2:53 AM72.0 °F68.0 °F87 %29.93 in10.0 miWest (260°)4.6 mphClear
3:53 AM71.1 °F66.9 °F87 %29.92 in10.0 miWNW (290°)4.6 mphClear
4:53 AM72.0 °F66.9 °F84 %29.92 in10.0 miWest (260°)4.6 mphClear
5:53 AM70.0 °F66.0 °F87 %29.91 in10.0 miCalmClear
6:53 AM71.1 °F66.9 °F87 %29.93 in10.0 miWest (260°)3.5 mphClear
7:53 AM72.0 °F66.9 °F84 %29.96 in10.0 miWest (280°)4.6 mphClear
8:53 AM73.9 °F66.9 °F79 %29.97 in10.0 miWNW (300°)5.8 mphClear
9:53 AM78.1 °F66.9 °F68 %29.98 in10.0 miNW (320°)9.2 mphClear
10:53 AM79.0 °F63.0 °F58 %29.99 in10.0 miNNW (340°)6.9 mphClear
11:53 AM81.0 °F62.1 °F52 %30.01 in10.0 miNW (310°)5.8 mphClear
12:53 PM81.0 °F62.1 °F52 %30.02 in10.0 miWest (260°)6.9 mphClear
1:53 PM82.0 °F57.0 °F42 %30.01 in10.0 miNNW (330°)10.4 mphClear
2:53 PM82.9 °F59.0 °F44 %30.01 in10.0 miNW (320°)8.1 mphClear
4:53 PM81.0 °F57.9 °F45 %30.01 in10.0 miNW (320°)9.2 mphScattered Clouds
5:53 PM82.0 °F57.0 °F42 %30.01 in10.0 miWNW (300°)8.1 mphPartly Cloudy
6:53 PM80.1 °F57.0 °F45 %30.00 in10.0 miNNW (330°)8.1 mphClear
7:53 PM75.9 °F61.0 °F60 %30.00 in10.0 miNNW (330°)4.6 mphClear
8:53 PM70.0 °F64.0 °F81 %30.01 in10.0 miCalmClear
9:53 PM68.0 °F63.0 °F84 %30.03 in10.0 miCalmClear
10:53 PM68.0 °F63.0 °F84 %30.04 in10.0 miCalmMostly Cloudy
11:53 PM66.9 °F59.0 °F76 %30.07 in10.0 miNNW (330°)6.9 mphClear
Hourly data recorded from KPOF, located miles away from Bernie, Missouri







STORIES FROM OUR PARTNERS